sat.trackr.live / text

‹ back to catalog

AMAZONAS 4A

NORAD 39616 · 2014-011A

PAYLOAD ACTIVE UNKNOWN

§ Identity

Operator
Country
SPN
Launch date
2014-03-22
Launch site
FRGUI
Launch vehicle
Mass (kg)
RCS (m²)
163.50

Purposes: comms

External: N2YO · Heavens-Above · Gunter

§ Orbital elements

Epoch: 2026-05-25T03:23:33.091008Z

Period
1,436.08 min
Inclination
0.0580°
Eccentricity
0.0003229
Mean motion
1.00273015 rev/d
Perigee alt
35,772.6 km
Apogee alt
35,799.9 km
Semi-major
42,164.4 km
B*
0.0000e+0
RAAN
158.3839°
Arg perigee
288.9056°
Mean anomaly
132.3329°
Rev number
4,448

§ Raw data

AMAZONAS 4A1 39616U 14011A   26145.14135522 -.00000255  00000+0  00000+0 0  99942 39616   0.0580 158.3839 0003229 288.9056 132.3329  1.00273015 44483

JSON: /api/v1/satellites/39616 · /tle

For live sub-satellite position, see the globe view (requires WebGL).

§ Visibility from observer

Set your observer location to see the next 7 days of passes ≥ 10°. The values pass through the URL so the page stays shareable.

No JS? Fill the form by hand. The geolocation button needs JavaScript.